When you browse on this site, cookies collect data to enhance your experience and personalize the content and advertising you see.
Visit our Privacy Policy to learn more. By continuing to use the site, you agree to this use of cookies and data.
  • In Spain
  • List of Countries
  • For 7 days
  • Water Temperature
  • Weather Map
  • Weather Widgets
  • user-avatar
    Login

    Hourly Weather Northallerton

    Today, 19 January, Sunday

    Time Temperature Precipitation Wind Pressure Humidity
    00:00 +2°C° 0 mm 2 mps 773 mmHg 84%
    01:00 +2°C° 0 mm 2 mps 774 mmHg 83%
    02:00 +2°C° 0 mm 2 mps 774 mmHg 82%
    03:00 +1°C° 0 mm 2 mps 775 mmHg 81%
    04:00 +2°C° 0 mm 1 mps 775 mmHg 80%
    05:00 +2°C° 0 mm 1 mps 776 mmHg 78%
    06:00 +2°C° 0 mm 1 mps 776 mmHg 77%
    07:00 +3°C° 0 mm 1 mps 777 mmHg 75%
    08:00 +3°C° 0 mm 1 mps 777 mmHg 74%
    09:00 +3°C° 0 mm 1 mps 778 mmHg 72%
    10:00 +4°C° 0 mm 1 mps 778 mmHg 69%
    11:00 +4°C° 0 mm 2 mps 778 mmHg 66%
    12:00 +6°C° 0 mm 2 mps 778 mmHg 63%
    13:00 +5°C° 0 mm 2 mps 779 mmHg 67%
    14:00 +5°C° 0 mm 2 mps 779 mmHg 71%
    15:00 +5°C° 0 mm 2 mps 779 mmHg 76%
    16:00 +4°C° 0 mm 2 mps 779 mmHg 80%
    17:00 +4°C° 0 mm 2 mps 779 mmHg 84%
    18:00 +3°C° 0 mm 2 mps 779 mmHg 89%
    19:00 +2°C° 0 mm 3 mps 779 mmHg 89%
    20:00 +2°C° 0 mm 3 mps 779 mmHg 88%
    21:00 +1°C° 0 mm 4 mps 780 mmHg 88%
    22:00 +1°C° 0 mm 4 mps 780 mmHg 87%
    23:00 +1°C° 0 mm 4 mps 780 mmHg 86%

    Tomorrow, 20 January, Monday

    Time Temperature Precipitation Wind Pressure Humidity
    00:00 +1°C° 0 mm 4 mps 780 mmHg 85%
    01:00 +1°C° 0 mm 4 mps 780 mmHg 85%
    02:00 +1°C° 0 mm 4 mps 779 mmHg 85%
    03:00 +1°C° 0 mm 4 mps 779 mmHg 85%
    04:00 +2°C° 0 mm 3 mps 779 mmHg 85%
    05:00 +2°C° 0 mm 3 mps 779 mmHg 86%
    06:00 +2°C° 0 mm 3 mps 779 mmHg 86%
    07:00 +2°C° 0 mm 3 mps 779 mmHg 87%
    08:00 +2°C° 0 mm 3 mps 779 mmHg 87%
    09:00 +3°C° 0 mm 2 mps 779 mmHg 88%
    10:00 +3°C° 0 mm 3 mps 779 mmHg 85%
    11:00 +4°C° 0 mm 3 mps 779 mmHg 82%
    12:00 +7°C° 0 mm 3 mps 779 mmHg 79%
    13:00 +5°C° 0 mm 3 mps 779 mmHg 81%
    14:00 +6°C° 0 mm 2 mps 778 mmHg 83%
    15:00 +6°C° 0 mm 2 mps 778 mmHg 85%
    16:00 +5°C° 0 mm 2 mps 778 mmHg 86%
    17:00 +4°C° 0 mm 2 mps 777 mmHg 88%
    18:00 +3°C° 0 mm 2 mps 777 mmHg 90%
    19:00 +4°C° 0 mm 1 mps 777 mmHg 91%
    20:00 +4°C° 0 mm 1 mps 777 mmHg 91%
    21:00 +4°C° 0 mm 1 mps 777 mmHg 91%
    22:00 +4°C° 0 mm 1 mps 777 mmHg 92%
    23:00 +3°C° 0 mm 1 mps 777 mmHg 92%

    Day after tomorrow, 21 January, Tuesday

    Time Temperature Precipitation Wind Pressure Humidity
    00:00 +3°C° 0 mm 1 mps 776 mmHg 92%
    01:00 +3°C° 0 mm 1 mps 776 mmHg 92%
    02:00 +3°C° 0 mm 1 mps 776 mmHg 93%
    03:00 +3°C° 0 mm 1 mps 776 mmHg 93%
    04:00 +2°C° 0 mm 2 mps 776 mmHg 93%
    05:00 +2°C° 0 mm 2 mps 776 mmHg 93%
    06:00 +2°C° 0 mm 2 mps 776 mmHg 93%
    07:00 +2°C° 0 mm 2 mps 775 mmHg 92%
    08:00 +2°C° 0 mm 2 mps 775 mmHg 92%
    09:00 +2°C° 0 mm 2 mps 775 mmHg 92%
    10:00 +4°C° 0 mm 2 mps 775 mmHg 89%
    11:00 +5°C° 0 mm 2 mps 775 mmHg 85%
    12:00 +7°C° 0 mm 2 mps 775 mmHg 82%
    13:00 +7°C° 0 mm 2 mps 775 mmHg 84%
    14:00 +7°C° 0 mm 2 mps 775 mmHg 85%
    15:00 +8°C° 0 mm 1 mps 775 mmHg 86%
    16:00 +7°C° 0 mm 1 mps 774 mmHg 88%
    17:00 +5°C° 0 mm 2 mps 774 mmHg 90%
    18:00 +4°C° 0 mm 2 mps 774 mmHg 92%
    19:00 +4°C° 0 mm 2 mps 774 mmHg 92%
    20:00 +4°C° 0 mm 2 mps 774 mmHg 92%
    21:00 +4°C° 0 mm 2 mps 774 mmHg 92%
    22:00 +5°C° 0 mm 1 mps 774 mmHg 91%
    23:00 +6°C° 0 mm 1 mps 774 mmHg 90%

    22 January, Wednesday

    Time Temperature Precipitation Wind Pressure Humidity
    00:00 +6°C° 0 mm 1 mps 774 mmHg 90%
    01:00 +6°C° 0 mm 1 mps 774 mmHg 90%
    02:00 +5°C° 0 mm 2 mps 774 mmHg 90%
    03:00 +6°C° 0 mm 2 mps 774 mmHg 89%
    04:00 +7°C° 0 mm 1 mps 774 mmHg 90%
    05:00 +7°C° 0 mm 1 mps 773 mmHg 91%
    06:00 +7°C° 0 mm 1 mps 773 mmHg 91%
    07:00 +7°C° 0 mm 1 mps 773 mmHg 92%
    08:00 +7°C° 0 mm 1 mps 773 mmHg 92%
    09:00 +8°C° 0 mm 1 mps 774 mmHg 92%
    10:00 +9°C° 0 mm 1 mps 774 mmHg 91%
    11:00 +9°C° 0 mm 1 mps 774 mmHg 89%
    12:00 +9°C° 0 mm 0 mps 774 mmHg 87%
    13:00 +9°C° 0 mm 0 mps 773 mmHg 88%
    14:00 +9°C° 0 mm 0 mps 773 mmHg 90%
    15:00 +9°C° 0 mm 0 mps 773 mmHg 91%
    16:00 +9°C° 0 mm 1 mps 773 mmHg 91%
    17:00 +9°C° 0 mm 1 mps 773 mmHg 92%
    18:00 +8°C° 0 mm 1 mps 772 mmHg 93%
    19:00 +8°C° 0 mm 1 mps 772 mmHg 93%
    20:00 +7°C° 0 mm 0 mps 772 mmHg 93%
    21:00 +6°C° 0 mm 0 mps 772 mmHg 93%
    22:00 +7°C° 0 mm 1 mps 772 mmHg 93%
    23:00 +7°C° 0 mm 1 mps 772 mmHg 93%

    23 January, Thursday

    Time Temperature Precipitation Wind Pressure Humidity
    00:00 +7°C° 0 mm 1 mps 772 mmHg 94%
    01:00 +7°C° 0 mm 1 mps 772 mmHg 94%
    02:00 +7°C° 0 mm 1 mps 771 mmHg 94%
    03:00 +7°C° 0 mm 1 mps 771 mmHg 95%
    04:00 +6°C° 0 mm 1 mps 770 mmHg 95%
    05:00 +6°C° 0 mm 1 mps 770 mmHg 95%
    06:00 +6°C° 0 mm 1 mps 770 mmHg 95%
    07:00 +6°C° 0 mm 1 mps 770 mmHg 95%
    08:00 +7°C° 0 mm 1 mps 769 mmHg 95%
    09:00 +7°C° 0 mm 1 mps 769 mmHg 95%
    10:00 +8°C° 0 mm 1 mps 769 mmHg 93%
    11:00 +8°C° 0 mm 1 mps 769 mmHg 92%
    12:00 +9°C° 0 mm 1 mps 769 mmHg 90%
    13:00 +9°C° 0 mm 1 mps 768 mmHg 89%
    14:00 +9°C° 0 mm 1 mps 768 mmHg 89%
    15:00 +9°C° 0 mm 1 mps 767 mmHg 88%
    16:00 +9°C° 0 mm 1 mps 767 mmHg 90%
    17:00 +8°C° 0 mm 1 mps 767 mmHg 91%
    18:00 +7°C° 0 mm 1 mps 766 mmHg 93%
    19:00 +7°C° 0 mm 1 mps 766 mmHg 93%
    20:00 +6°C° 0 mm 1 mps 766 mmHg 94%
    21:00 +6°C° 0 mm 1 mps 766 mmHg 94%
    22:00 +6°C° 0 mm 1 mps 765 mmHg 94%
    23:00 +6°C° 0 mm 1 mps 765 mmHg 94%

    24 January, Friday

    Time Temperature Precipitation Wind Pressure Humidity
    00:00 +5°C° 0 mm 2 mps 765 mmHg 93%
    01:00 +5°C° 0 mm 2 mps 764 mmHg 93%
    02:00 +5°C° 0 mm 2 mps 764 mmHg 93%
    03:00 +5°C° 0 mm 2 mps 763 mmHg 93%
    04:00 +5°C° 0 mm 2 mps 763 mmHg 93%
    05:00 +5°C° 0 mm 2 mps 762 mmHg 93%
    06:00 +5°C° 0 mm 2 mps 762 mmHg 93%
    07:00 +6°C° 0 mm 2 mps 761 mmHg 93%
    08:00 +5°C° 0 mm 3 mps 761 mmHg 93%
    09:00 +5°C° 0 mm 3 mps 761 mmHg 93%
    10:00 +7°C° 0 mm 3 mps 760 mmHg 90%
    11:00 +8°C° 0 mm 3 mps 760 mmHg 88%
    12:00 +7°C° 0 mm 4 mps 759 mmHg 85%
    13:00 +7°C° 0 mm 4 mps 759 mmHg 86%
    14:00 +7°C° 0 mm 4 mps 758 mmHg 86%
    15:00 +7°C° 0 mm 4 mps 757 mmHg 87%
    16:00 +7°C° 0 mm 4 mps 757 mmHg 87%
    17:00 +6°C° 0 mm 4 mps 756 mmHg 87%
    18:00 +6°C° 0 mm 4 mps 756 mmHg 87%
    19:00 +5°C° 0 mm 4 mps 756 mmHg 87%
    20:00 +5°C° 0 mm 4 mps 755 mmHg 88%
    21:00 +4°C° 0 mm 4 mps 755 mmHg 88%
    22:00 +4°C° 0 mm 4 mps 755 mmHg 87%
    23:00 +4°C° 0 mm 4 mps 754 mmHg 86%
    Show more